Weather History for Thessaloniki, Greece

Change the Weather History Date:

Wednesday, April 17, 2013

  Actual Average Record
Temperature  
Mean Temperature 55 °F -  
Max Temperature 69 °F 72 °F 73 °F (1998)
Min Temperature 41 °F 50 °F 30 °F (1997)
Degree Days  
Heating Degree Days 10    
Growing Degree Days 5 (Base 50)    
Moisture  
Dew Point 40 °F    
Average Humidity 57    
Maximum Humidity 93    
Minimum Humidity 19    
Precipitation  
Precipitation 0.00 in 0.05 in - ()
Sea Level Pressure  
Sea Level Pressure 30.12 in    
Wind  
Wind Speed 4 mph ()    
Max Wind Speed 13 mph    
Max Gust Speed -    
Visibility 6.2 miles    
Events      
Averages and records for this station are not official NWS values.
T = Trace of Precipitation, MM = Missing Value Source: Averaged Metar Reports

Daily Weather History Graph

Daily Weather History Graph

Search for Another Location

Airport:

Trip Planner

Search our weather history database for the weather conditions in past years. The results will help you decide how hot, cold, wet, or windy it might be!

Date:

Astronomy

Apr. 17, 2013 Rise Set
Actual Time 6:46 AM EEST 8:09 PM EEST
Civil Twilight 6:18 AM EEST 8:37 PM EEST
Nautical Twilight 5:44 AM EEST 9:12 PM EEST
Astronomical Twilight 5:08 AM EEST 9:48 PM EEST
Moon 11:42 AM EEST (4/17) 1:35 AM EEST (4/17)
Length of Visible Light 14h 19m
Length of Day
13h 22m
Waxing Crescent, 39% of the Moon is Illuminated
Apr 17
Waxing Crescent
Apr 18
First Quarter
Apr 25
Full
May 2
Last Quarter
May 10
New

Hourly Weather History & Observations

Time (EEST) Temp. Windchill Dew Point Humidity Pressure Visibility Wind Dir Wind Speed Gust Speed Precip Events Conditions
12:20 AM 55.4 °F - 46.4 °F 72% 30.12 in 6.2 mi Calm Calm - N/A   Mostly Cloudy
12:50 AM 51.8 °F - 46.4 °F 82% 30.12 in 6.2 mi Calm Calm - N/A   Mostly Cloudy
1:20 AM 50.0 °F - 44.6 °F 82% 30.12 in 6.2 mi Calm Calm - N/A   Mostly Cloudy
1:50 AM 48.2 °F - 44.6 °F 87% 30.12 in 6.2 mi ESE 5.8 mph - N/A   Scattered Clouds
2:20 AM 48.2 °F - 44.6 °F 87% 30.15 in 6.2 mi ESE 5.8 mph - N/A   Partly Cloudy
2:50 AM 48.2 °F - 42.8 °F 82% 30.15 in 6.2 mi ESE 4.6 mph - N/A   Partly Cloudy
3:00 AM 47 °F - 43 °F 82% 30.15 in 6 mi ESE 4.6 mph - -   Scattered Clouds
3:20 AM 44.6 °F 40.7 °F 41.0 °F 87% 30.12 in 6.2 mi ESE 6.9 mph - N/A   Partly Cloudy
3:50 AM 44.6 °F - 41.0 °F 87% 30.12 in 6.2 mi Calm Calm - N/A   Partly Cloudy
4:20 AM 44.6 °F - 41.0 °F 87% 30.12 in 6.2 mi Calm Calm - N/A   Partly Cloudy
4:50 AM 42.8 °F 39.3 °F 41.0 °F 93% 30.12 in 6.2 mi ESE 5.8 mph - N/A   Partly Cloudy
5:20 AM 42.8 °F 39.3 °F 41.0 °F 93% 30.12 in 6.2 mi ESE 5.8 mph - N/A   Partly Cloudy
5:50 AM 42.8 °F - 41.0 °F 93% 30.15 in 6.2 mi Calm Calm - N/A   Partly Cloudy
6:20 AM 42.8 °F - 41.0 °F 93% 30.15 in 6.2 mi Calm Calm - N/A   Partly Cloudy
6:50 AM 42.8 °F - 37.4 °F 81% 30.15 in 6.2 mi Calm Calm - N/A   Partly Cloudy
7:20 AM 41.0 °F 38.0 °F 37.4 °F 87% 30.15 in 6.2 mi ESE 4.6 mph - N/A   Partly Cloudy
7:50 AM 42.8 °F - 39.2 °F 87% 30.15 in 6.2 mi Variable 2.3 mph - N/A   Partly Cloudy
8:20 AM 50.0 °F - 41.0 °F 71% 30.18 in 6.2 mi Variable 2.3 mph - N/A   Partly Cloudy
8:50 AM 51.8 °F - 41.0 °F 67% 30.18 in 6.2 mi Variable 2.3 mph - N/A   Partly Cloudy
9:00 AM 51 °F - 40 °F 57% 30.19 in 6 mi 2.3 mph - -   Scattered Clouds
9:20 AM 59.0 °F - 39.2 °F 48% 30.18 in 6.2 mi NW 12.7 mph - N/A   Partly Cloudy
9:50 AM 57.2 °F - 42.8 °F 59% 30.18 in 6.2 mi WNW 10.4 mph - N/A   Partly Cloudy
10:20 AM 59.0 °F - 42.8 °F 55% 30.18 in 6.2 mi West 10.4 mph - N/A   Partly Cloudy
10:50 AM 60.8 °F - 41.0 °F 48% 30.18 in 6.2 mi NW 11.5 mph - N/A   Partly Cloudy
11:20 AM 60.8 °F - 41.0 °F 48% 30.18 in 6.2 mi WNW 12.7 mph - N/A   Partly Cloudy
11:50 AM 62.6 °F - 42.8 °F 48% 30.18 in 6.2 mi NW 10.4 mph - N/A   Partly Cloudy
12:20 PM 64.4 °F - 41.0 °F 42% 30.15 in 6.2 mi WNW 8.1 mph - N/A   Partly Cloudy
12:50 PM 64.4 °F - 41.0 °F 42% 30.15 in 6.2 mi WNW 8.1 mph - N/A   Partly Cloudy
1:20 PM 66.2 °F - 37.4 °F 35% 30.15 in 6.2 mi West 6.9 mph - N/A   Partly Cloudy
1:50 PM 66.2 °F - 37.4 °F 35% 30.15 in 6.2 mi West 6.9 mph - N/A   Partly Cloudy
2:20 PM 66.2 °F - 33.8 °F 30% 30.12 in 6.2 mi West 6.9 mph - N/A   Partly Cloudy
2:50 PM 68.0 °F - 35.6 °F 30% 30.12 in 6.2 mi West 6.9 mph - N/A   Partly Cloudy
3:00 PM 68 °F - 36 °F 19% 30.14 in 6 mi West 6.9 mph - -   Scattered Clouds
3:20 PM 68.0 °F - 41.0 °F 37% 30.12 in 6.2 mi West 8.1 mph - N/A   Partly Cloudy
3:50 PM 68.0 °F - 41.0 °F 37% 30.09 in 6.2 mi West 8.1 mph - N/A   Partly Cloudy
4:20 PM 69.8 °F - 39.2 °F 33% 30.09 in 6.2 mi West 9.2 mph - N/A   Partly Cloudy
4:50 PM 69.8 °F - 37.4 °F 31% 30.09 in 6.2 mi West 9.2 mph - N/A   Partly Cloudy
5:20 PM 69.8 °F - 35.6 °F 28% 30.06 in 6.2 mi West 9.2 mph - N/A   Partly Cloudy
5:50 PM 69.8 °F - 37.4 °F 31% 30.06 in 6.2 mi West 9.2 mph - N/A   Partly Cloudy
6:20 PM 69.8 °F - 35.6 °F 28% 30.06 in 6.2 mi West 9.2 mph - N/A   Partly Cloudy
6:50 PM 69.8 °F - 30.2 °F 23% 30.06 in 6.2 mi WSW 8.1 mph - N/A   Partly Cloudy
7:20 PM 68.0 °F - 30.2 °F 24% 30.06 in 6.2 mi SSW 6.9 mph - N/A   Partly Cloudy
7:50 PM 64.4 °F - 35.6 °F 34% 30.06 in 6.2 mi SSW 6.9 mph - N/A   Partly Cloudy
8:20 PM 62.6 °F - 39.2 °F 42% 30.06 in 6.2 mi South 4.6 mph - N/A   Partly Cloudy
8:50 PM 60.8 °F - 39.2 °F 45% 30.06 in 6.2 mi Variable 3.5 mph - N/A   Partly Cloudy
9:00 PM 62 °F - 39 °F 31% 30.08 in 6 mi 3.5 mph - -   Scattered Clouds
9:20 PM 60.8 °F - 41.0 °F 48% 30.09 in 6.2 mi ESE 8.1 mph - N/A   Partly Cloudy
9:50 PM 53.6 °F - 41.0 °F 62% 30.09 in 6.2 mi ESE 9.2 mph - N/A   Partly Cloudy
10:20 PM 55.4 °F - 42.8 °F 63% 30.09 in 6.2 mi ESE 9.2 mph - N/A   Partly Cloudy
10:50 PM 55.4 °F - 41.0 °F 58% 30.09 in 6.2 mi ESE 8.1 mph - N/A   Scattered Clouds
11:20 PM 55.4 °F - 39.2 °F 54% 30.09 in 6.2 mi SE 6.9 mph - N/A   Scattered Clouds
11:50 PM 57.2 °F - 39.2 °F 51% 30.09 in 6.2 mi ESE 8.1 mph - N/A   Scattered Clouds